NILESAT 301

Last updated on Tue Jul 08 2025 00:02:48 GMT+0000 (Coordinated Universal Time)

1 52817U 22061A 25188.56112723 -.00000041 00000+0 00000+0 0 9999 2 52817 0.0478 23.9019 0004549 36.9664 59.9032 1.00272406 11286
UTC large
Height (km)
Speed (km/s)
/
Latitude / Longitude
Inclination (degrees)
Orbital Period (minutes)
Azimuth
Elevation
Range (km)
Doppler Factor

Next 0 passes for location: London (51.5072 / 0.1276)

Sorry there are no passes over London.